Regional Weather Roundup
Issued by NWS Grand Forks, ND

Home | Current Version | Previous Version | Graphics & Text | Print | Product List | Glossary On
Versions: 1 2 3 4 5 6 7 8 9 10 11 12 13 14 15 16 17 18 19 20 21 22 23 24 25 26 27 28 29 30 31 32 33 34 35 36 37 38 39 40 41 42 43 44 45 46 47 48 49 50
000
ASUS43 KFGF 172310
RWRFGF
PRAIRIE TO PINES  WEATHER ROUNDUP
NATIONAL WEATHER SERVICE EASTERN NORTH DAKOTA/GRAND FORKS ND
600 PM CDT WED SEP 17 2014

 **SATELLITE DATA USED TO AUGMENT SKY COVER AT AUTOMATED STATIONS**
 *****  WEATHER ACROSS EASTERN NORTH DAKOTA  *****

CITY           SKY/WX    TMP DP  RH WIND       PRES   REMARKS
GRAND FORKS    SUNNY     64  47  53 NE10      30.01S
GRAND FRKS AFB SUNNY     63  49  60 E9        30.02S
GRAND FRKS NWS   N/A     63 N/A N/A NE5         N/A
DEVILS LAKE    SUNNY     61  45  55 E9        30.01S
FARGO          SUNNY     72  50  45 N10       29.97S
WAHPETON ARPT  CLEAR     72  41  33 E6        29.96S
$$

 ***** WEATHER ACROSS CENTRAL AND WESTERN NORTH DAKOTA  *****

CITY           SKY/WX    TMP DP  RH WIND       PRES   REMARKS
BISMARCK       MOSUNNY   69  52  54 E6        29.96S
MINOT          SUNNY     67  49  52 E12       29.97F
JAMESTOWN      SUNNY     69  49  48 E9        29.98R
MINOT AFB      SUNNY     66  50  57 E12       29.97F
GARRISON         N/A     73  44  35 E9        29.96S
WILLISTON      SUNNY     75  41  29 S12       29.92F
DICKINSON      MOSUNNY   71  47  42 SE13      29.93S
HETTINGER      CLOUDY    67  52  58 SE9       29.94F
$$

 *****  OTHER AIRPORT OBSERVATIONS IN OUR AREA  *****

CITY           SKY/WX    TMP DP  RH WIND       PRES   REMARKS
WALHALLA         N/A     57  43  58 NE12      30.06F
GRAFTON AIRPOR FAIR      59  46  63 N9        30.03S
VALLEY CITY AR FAIR      66  54  63 NE13      29.99S
CANDO          FAIR      59  45  58 E9        30.03S
CAVALIER APRT  FAIR      57  43  58 NE10      30.06S
GWINNER        CLEAR     73  46  38 NE8       29.98S
ROLLA          FAIR      57  41  54 E12       30.05S
 ***** THE ABOVE OBSERVATIONS ARE NON NWS ARE NOT QUALITY
       CONTROLLED AND MAY MIS-REPORT RAIN FOR SNOW...
$$

  *****  WEATHER ACROSS NORTHERN MINNESOTA  *****

CITY           SKY/WX    TMP DP  RH WIND       PRES   REMARKS
FLAG ISLAND    CLOUDY    46  37  71 NE5       30.09S
WARROAD        MOSUNNY   48  41  76 NE9       30.10R
ROSEAU         SUNNY     52  41  66 E13       30.08S
HALLOCK        SUNNY     61  45  55 NE12      30.05R
THF RVR FALLS  SUNNY     61  45  55 N15       30.02S
BAUDETTE       MOSUNNY   51  40  65 NE9       30.08R
WASKISH        SUNNY     57  45  62 N6        30.04R
CROOKSTON      SUNNY     64  48  55 NE7       30.01S
$$
  *****  WEATHER ACROSS CENTRAL AND WEST MINNESOTA  *****

CITY           SKY/WX    TMP DP  RH WIND       PRES   REMARKS
FOSSTON        SUNNY     66  50  55 E3        30.02R
BEMIDJI        SUNNY     62  49  62 NE9       30.01R
PARK RAPIDS    SUNNY     71  48  43 N6        29.97R
ELBOW LAKE     FAIR      71  52  50 NE6       29.96R
WADENA         SUNNY     72  46  40 CALM      29.96S
DETROIT LAKES  SUNNY     70  46  43 N3        29.98S
MOORHEAD       SUNNY     72  48  43 N8        29.98R
FERGUS FALLS   SUNNY     72  39  30 NE5       29.96R
MORRIS MN      SUNNY     72  52  49 NE6       29.94S
STAPLES        SUNNY     72  43  35 CALM      29.97R
$$
  *****  WEATHER ELSEWHERE ACROSS MINNESOTA  *****

CITY           SKY/WX    TMP DP  RH WIND       PRES   REMARKS
DULUTH         CLOUDY    46  40  79 E16       30.05R
INTRNTL FALLS    N/A     50  40  68 NE7       30.08S
ELY            CLOUDY    46  43  87 SE7       30.07R
CLOQUET        CLOUDY    46  43  87 E12G24    30.04R
WHEATON        SUNNY     70  52  52 NE5       29.96S
BRAINERD       MOSUNNY   70  47  43 N3        29.97S
HIBBING        CLOUDY    54  45  71 SE14      30.03R
ALEXANDRIA     PTSUNNY   70  52  52 E6        29.98R
SAINT CLOUD    MOSUNNY   74  52  46 NE6       29.95S
MINNEAPOLIS    MOSUNNY   71  52  50 E7        29.94S
$$

  *****  WEATHER ACROSS SOUTH DAKOTA  *****

CITY           SKY/WX    TMP DP  RH WIND       PRES   REMARKS
SIOUX FALLS    PTSUNNY   78  52  40 NE6       29.92S
BROOKINGS      NOT AVBL
WATERTOWN      SUNNY     71  51  49 E8        29.96R
HURON          MOSUNNY   76  48  37 N5        29.93R
SISSETON         N/A     74  53  48 E5        29.94S
ABERDEEN       MOSUNNY   69  50  50 NE6       29.96R
MITCHELL       MOSUNNY   78  55  44 N6        29.92S
PIERRE         MOSUNNY   77  52  41 E13       29.91R
MOBRIDGE       CLOUDY    71  49  45 E10       29.95R
RAPID CITY     SUNNY     78  48  34 SE12      29.92S
$$

  *****  SOME WEATHER IN NEARBY STATES *****

CITY           SKY/WX    TMP DP  RH WIND       PRES   REMARKS
GLASGOW MT     SUNNY     80  46  30 SE14      29.82F
GREAT FALLS MT CLOUDY    79  55  43 S5        29.81F
CHEYENNE WY    LGT RAIN  73  41  31 NW8G18    30.12R
SCOTTSBLUFF NE MOSUNNY   88  41  19 NW7       29.93F
OMAHA NE       MOSUNNY   79  60  52 E6        29.89S
DES MOINES IA  MOSUNNY   74  57  55 E5        29.93R
DAVENPORT IA   SUNNY     68  50  52 S3        29.96S
CHICAGO IL     CLEAR     70  44  39 E13       29.97S
EAU CLAIRE WI  MOSUNNY   69  52  54 CALM      29.95S
LA CROSSE WI   PTSUNNY   68  55  63 SW3       29.96S
$$

  *****  SOME NATIONAL WEATHER *****

CITY           SKY/WX    TMP DP  RH WIND       PRES   REMARKS
LA GUARDIA NY  PTCLDY    71  43  36 W7        29.97R
RALEIGH NC     PTCLDY    74  63  68 E7        29.93R
ATLANTA GA     MOCLDY    80  59  48 N13       29.91R
NEW ORLEANS LA PTSUNNY   88  68  51 S3        29.90S HX  91
OKLAHOMA CITY  CLOUDY    89  66  46 W7        29.86S HX  91
ALBUQUERQUE NM CLOUDY    69  56  62 NW5       30.11F
SALT LAKE CITY MOSUNNY   94  38  14 VRB6      29.87F
LOS ANGELES CA MOSUNNY   83  53  35 W16       29.72F
BOISE ID       MOSUNNY   92  36  14 N6        29.75F
SEATTLE WA     CLOUDY    70  55  59 N14       29.71F
$$

*** WEATHER ACROSS MANITOBA...SASKATCHEWAN AND ONTARIO ***
                ***ONTARIO***

CITY           SKY/WX    TMP DP  RH WIND       PRES   REMARKS
GERALDTON      MOCLDY    41  30  65 N3        30.09S
THUNDER BAY    CLOUDY    46  37  71 NE3       30.11S
SIOUX LOOKOUT  PTSUNNY   41  32  70 N3        30.11S
TORONTO        MOCLDY    66  45  45 W14       29.94S
BIG TROUT LK   CLOUDY    36  21  55 NW9       30.15S
PICKLE LAKE    MOSUNNY   45  25  45 VRB3      30.09S
DRYDEN         PTSUNNY   43  32  65 VRB2      30.11S
KENORA         MOSUNNY   45  36  70 E7        30.11S
$$
                *** MANITOBA***

CITY           SKY/WX    TMP DP  RH WIND       PRES   REMARKS
BRANDON        PTSUNNY   46  39  76 E15       30.09S
DAUPHIN        CLOUDY    45  39  81 SE6       30.10F
ISLAND LAKE    MOSUNNY   45  25  45 NW3       30.15F
PILOT MOUND      N/A     54  41  62 E10         N/A
THE PAS        PTSUNNY   46  34  61 SE14      30.06F
THOMPSON       PTSUNNY   45  23  42 S5        30.10F
WINNIPEG       CLOUDY    46  39  76 NE8       30.12R
LYNN LAKE      SUNNY     46  21  36 S10       30.00F
CHURCHILL      CLOUDY    36  25  64 W6        30.13F
GILLAM         MOSUNNY   41  25  52 CALM      30.14F
$$
                ***SASKATCHEWAN***

CITY           SKY/WX    TMP DP  RH WIND       PRES   REMARKS
ESTEVAN        MOSUNNY   64  52  63 SE12      29.97F
KINDERSLEY     MOSUNNY   75  48  38 SE13      29.79F
LLOYDMINSTER   CLOUDY    68  46  45 SE13G21   29.77F
PRINCE ALBERT  PTSUNNY   57  46  67 SE10      29.92F
REGINA         MOSUNNY   66  50  55 SE14G22   29.91F
YORKTON        PTSUNNY   52  43  71 SE13G20   30.01F
N. BATTLEFORD  SUNNY     61  48  63 SE15G21   29.86F
LA RONGE       CLOUDY    46  41  81 SE13G21   29.92F
SASKATOON      PTSUNNY   64  48  55 SE15      29.88F
SWIFT CURRENT  SUNNY     79  43  27 S10G22    29.79F
$$
NOTE: THESE ARE AUTOMATED STATIONS WITH LIMITED QUALITY CONTROL
      "FAIR" INDICATES FEW OR NO CLOUDS BELOW 12,000 FEET WITH NO
      SIGNIFICANT WEATHER AND/OR OBSTRUCTIONS TO VISIBILITY.
      SKY/WX - SKY CONDITION AND SIGNIFICANT WEATHER.
      TMP - AIR TEMPERATURE.    DP   - DEWPOINT TEMPERATURE.
      RH  - RELATIVE HUMIDITY.  PRES - PRESSURE.
      HX  - HEAT INDEX.         WCI  - WIND CHILL INDEX.
$



USA.gov is the U.S. government's official web portal to all federal, state and local government web resources and services.